IZ2OSD Weather Reports


time (UTC)temp
F
wind
direction
speed
knots
gust
knots
rain 1hr
in
rain 24hr
in
rain mn
in
humidity
%
barometer
mb
20260503173211 73 0.0 0.0 0.00 0.00 0.00 40 1015.3
20260503172208 73 0.0 0.0 0.00 0.00 0.00 40 1015.1
20260503171205 73 0.0 0.0 0.00 0.00 0.00 40 1015.1
20260503170201 73 0.0 0.0 0.00 0.00 0.00 39 1015.1
20260503160133 74 315 0.9 1.7 0.00 0.00 0.00 39 1015.6
20260503131013 74 315 0.9 2.6 0.00 0.00 0.00 35 1017.4
20260503110522 73 292 1.7 2.6 0.00 0.00 0.00 39 1017.6
20260503090222 73 292 0.0 0.9 0.00 0.00 0.00 40 1018.1
20260503081200 66 0 0.9 5.2 0.00 0.00 0.00 55 1018.4
20260503080716 69 225 0.0 0.9 0.00 0.00 0.00 53 1018.3
20260503072609 65 301 0.9 2.6 0.00 0.00 0.00 59 1018.3
20260503071559 64 337 0.9 1.7 0.00 0.00 0.00 60 1018.3
20260503070556 64 292 2.6 3.5 0.00 0.00 0.00 60 1018.3
20260503054522 59 0.0 0.0 0.00 0.00 0.00 67 1018.2
20260503053517 59 315 0.0 0.9 0.00 0.00 0.00 68 1018.1
20260503052513 57 315 0.9 1.7 0.00 0.00 0.00 69 1017.9
20260503051511 57 315 0.0 0.9 0.00 0.00 0.00 70 1017.7
20260503050507 55 315 0.0 0.9 0.00 0.00 0.00 72 1017.8
20260503045544 56 0.0 0.0 0.00 0.00 0.00 71 1017.9
20260503044500 56 0.0 0.0 0.00 0.00 0.00 71 1018.1
20260503043457 53 0.0 0.0 0.00 0.00 0.00 76 1018.1
20260503042447 53 0.0 0.0 0.00 0.00 0.00 76 1018.1
20260503041443 53 0.0 0.0 0.00 0.00 0.00 75 1017.9
20260503040440 54 0.0 0.0 0.00 0.00 0.00 74 1018.1
20260503035436 53 0.0 0.0 0.00 0.00 0.00 75 1018.1
20260503034433 53 0.0 0.0 0.00 0.00 0.00 75 1017.9
20260503033423 53 0.0 0.0 0.00 0.00 0.00 74 1017.6
20260503032500 53 0.0 0.0 0.00 0.00 0.00 74 1017.7
20260503031415 53 0.0 0.0 0.00 0.00 0.00 74 1018.2
20260503030413 53 0.0 0.0 0.00 0.00 0.00 74 1017.7
20260503025410 53 0.0 0.0 0.00 0.00 0.00 74 1017.8
20260503024405 54 0.0 0.0 0.00 0.00 0.00 73 1018.1
20260503023422 54 0.0 0.0 0.00 0.00 0.00 72 1018.2
20260503022359 55 0.0 0.0 0.00 0.00 0.00 70 1018.2
20260503021349 55 0.0 0.0 0.00 0.00 0.00 70 1018.4
20260503020348 55 0.0 0.0 0.00 0.00 0.00 68 1018.2
20260503015336 55 0.0 0.0 0.00 0.00 0.00 69 1018.2
20260503014353 55 0.0 0.0 0.00 0.00 0.00 69 1018.4
20260503013328 55 0.0 0.0 0.00 0.00 0.00 69 1018.2
20260503012325 55 0.0 0.0 0.00 0.00 0.00 69 1018.2
20260503011342 55 0.0 0.0 0.00 0.00 0.00 68 1018.3
20260503010311 55 0.0 0.0 0.00 0.00 0.00 69 1018.7
20260503005308 55 0.0 0.0 0.00 0.00 0.00 69 1018.8
20260503004303 56 0.0 0.0 0.00 0.00 0.00 69 1019.0
20260503003301 56 0.0 0.0 0.00 0.00 0.00 68 1019.0
20260503002259 57 0.0 0.0 0.00 0.00 0.00 67 1019.1
20260503001248 57 0.0 0.0 0.00 0.00 0.00 65 1019.1
20260503000244 57 0.0 0.0 0.00 0.00 0.00 63 1019.2
20260502235236 57 0.0 0.0 0.00 0.00 0.00 64 1018.9
20260502234231 57 0.0 0.0 0.00 0.00 0.00 64 1019.5
20260502233229 58 0.0 0.0 0.00 0.00 0.00 64 1019.5
20260502232223 58 0.0 0.0 0.00 0.00 0.00 63 1019.5
20260502231220 58 0.0 0.0 0.00 0.00 0.00 63 1019.4
20260502230233 59 0.0 0.0 0.00 0.00 0.00 63 1019.3
20260502225209 59 0.0 0.0 0.00 0.00 0.00 62 1019.4
20260502224244 59 0.0 0.0 0.00 0.00 0.00 61 1019.6
20260502223158 59 0.0 0.9 0.00 0.00 0.00 60 1019.5
20260502222149 59 0.0 0.0 0.00 0.00 0.00 60 1019.6
20260502221145 59 0.0 0.0 0.00 0.00 0.00 60 1019.7
20260502220137 59 315 0.0 0.9 0.00 0.00 0.00 60 1019.3
20260502215134 59 315 0.9 1.7 0.00 0.00 0.00 60 1019.7
20260502214132 58 0.0 0.0 0.00 0.00 0.00 60 1019.4
20260502213124 58 0.0 0.0 0.00 0.00 0.00 60 1019.8
20260502212121 60 0.0 0.0 0.00 0.00 0.00 60 1019.7
20260502211111 61 0.0 0.0 0.00 0.00 0.00 58 1019.6
20260502210108 61 0.0 0.0 0.00 0.00 0.00 57 1019.5
20260502205104 62 0.0 0.0 0.00 0.00 0.00 55 1019.6
20260502204101 62 0.0 0.0 0.00 0.00 0.00 55 1019.5
20260502203117 62 0.0 0.0 0.00 0.00 0.00 54 1019.4
20260502202048 62 0.0 0.0 0.00 0.00 0.00 53 1019.5
20260502201044 63 0.0 0.0 0.00 0.00 0.00 53 1019.7
20260502200042 63 0.0 0.0 0.00 0.00 0.00 52 1019.2
20260502195036 63 0.0 0.0 0.00 0.00 0.00 52 1019.2
20260502194033 64 0.0 0.0 0.00 0.00 0.00 51 1019.2
20260502193026 64 0.0 0.0 0.00 0.00 0.00 50 1019.3
20260502192020 65 0.0 0.0 0.00 0.00 0.00 52 1019.3
20260502191015 66 0.0 0.0 0.00 0.00 0.00 50 1019.3
20260502190012 67 0.0 0.0 0.00 0.00 0.00 49 1019.3
20260502185009 68 0.0 0.0 0.00 0.00 0.00 48 1019.0
20260502184005 69 0.0 0.0 0.00 0.00 0.00 40 1019.1
20260502183124 69 0.0 0.0 0.00 0.00 0.00 40 1019.2
20260502182020 70 0.0 0.0 0.00 0.00 0.00 39 1019.0
20260502180955 70 0.0 0.0 0.00 0.00 0.00 38 1019.2